Location: Kelshall
(52.0000°N, 0.0500°W)
Time: 14:07:25
(UTC+00:00)

ATLAS 2AS CENTAUR R/B - Pass Details

Date: 19 January 2021
Orbit: 947 x 1265 km, 63.7° (Epoch: 13 February)

Event Time Altitude Azimuth Distance (km) Brightness Sun altitude
Rises 20:47:15 0° 289° (WNW) 4,216 6.7 -39.5°
Reaches altitude 10° 20:50:27 10° 299° (WNW) 3,229 5.9 -39.9°
Enters shadow 20:56:16 33° 345° (NNW) 1,936 4.2 -40.7°
